Stations météo

Publicité
Leucate/Semaphore, France (7666): Température de l'air & dewpoint: 21.05.2019 05:00:00 - 27.05.2019 05:00:00 (CEST)Leucate/Semaphore, France (7666): Vitesse du vent & gusts: 21.05.2019 05:00:00 - 27.05.2019 05:00:00 (CEST)Leucate/Semaphore, France (7666): Direction du vent: 21.05.2019 05:00:00 - 27.05.2019 05:00:00 (CEST)Leucate/Semaphore, France (7666): reduced air pressure: 21.05.2019 05:00:00 - 27.05.2019 05:00:00 (CEST)Leucate/Semaphore, France (7666): visibility: 21.05.2019 05:00:00 - 27.05.2019 05:00:00 (CEST)Leucate/Semaphore, France (7666): Quantités de précipitations: 21.05.2019 05:00:00 - 27.05.2019 05:00:00 (CEST)
Date & Time tt [°C] td [°C] ff [km/h] ff [knt] fx [km/h] fx [knt] dd ppp [hPa] vv [km] rr [mm]
27.05.2019 05:00:00 15,9 10,6 40 22 84 45 NW 1012,3 - 0,0
27.05.2019 04:00:00 16,3 11,0 39 21 80 43 NW 1012,5 - 0,0
27.05.2019 03:00:00 17,0 11,0 37 20 74 40 NW 1013,0 - 0,0
27.05.2019 02:00:00 17,7 10,8 35 19 73 39 NW 1013,4 - 0,0
27.05.2019 01:00:00 18,1 10,7 30 16 68 37 NW 1014,2 - 0,0
27.05.2019 00:00:00 18,5 10,3 32 17 80 43 NW 1014,4 - 0,0
26.05.2019 23:00:00 19,0 10,3 35 19 72 39 NW 1014,0 - 0,0
26.05.2019 22:00:00 19,0 10,0 36 19 76 41 NW 1013,7 - 0,0
26.05.2019 21:00:00 19,3 10,3 35 19 76 41 NW 1013,3 - 0,0
26.05.2019 20:00:00 20,4 10,5 34 18 77 42 NW 1013,6 25 0,0
26.05.2019 19:00:00 21,2 10,4 39 21 78 42 NW 1013,7 - 0,0
26.05.2019 18:00:00 21,4 10,5 35 19 82 44 NW 1014,2 - 0,0
26.05.2019 17:00:00 20,6 10,7 41 22 87 47 NW 1014,6 20 0,0
26.05.2019 16:00:00 20,2 10,3 46 25 86 46 NW 1014,6 - 0,0
26.05.2019 15:00:00 20,1 10,8 39 21 90 49 NW 1015,0 - 0,0
26.05.2019 14:00:00 19,1 10,1 42 23 86 47 NW 1015,4 - 0,0
26.05.2019 13:00:00 19,1 10,1 48 26 96 52 NW 1016,0 - 0,0
26.05.2019 12:00:00 18,3 9,1 40 21 82 44 NW 1016,1 - 0,0
26.05.2019 11:00:00 18,0 8,8 42 23 90 48 NW 1015,8 20 0,0
26.05.2019 10:00:00 17,5 8,6 42 23 98 53 NW 1016,3 - 0,0
26.05.2019 09:00:00 15,2 8,9 44 24 89 48 NW 1016,5 - 0,0
26.05.2019 08:00:00 14,8 8,5 44 24 87 47 NW 1016,7 - 0,0
26.05.2019 07:00:00 14,9 7,9 41 22 90 49 NW 1016,6 - 0,0
26.05.2019 06:00:00 14,9 8,4 39 21 75 40 NW 1015,6 - 0,0
26.05.2019 05:00:00 15,3 8,8 40 21 82 45 NW 1016,6 20 0,0
26.05.2019 04:00:00 15,7 9,6 35 19 69 38 NW 1016,6 - 0,0
26.05.2019 03:00:00 16,3 10,2 37 20 84 45 NW 1016,7 - 0,0
26.05.2019 02:00:00 16,8 9,7 34 18 73 39 NW 1017,3 - 0,0
26.05.2019 01:00:00 17,2 9,9 35 19 79 43 NW 1017,3 - 0,0
26.05.2019 00:00:00 17,4 10,3 32 17 70 38 NW 1017,4 - 0,0
25.05.2019 23:00:00 18,1 10,7 37 20 78 42 NW 1017,3 - 0,0
25.05.2019 22:00:00 18,5 10,6 36 19 75 40 NW 1016,5 - 0,0
25.05.2019 21:00:00 19,1 10,4 33 18 77 42 NW 1016,0 - 0,0
25.05.2019 20:00:00 19,3 10,6 32 17 71 38 NW 1015,5 - 0,0
25.05.2019 19:00:00 19,8 11,0 37 20 77 42 NW 1015,4 - 0,0
25.05.2019 18:00:00 21,1 11,7 37 20 77 42 NW 1015,3 - 0,0
25.05.2019 17:00:00 20,7 11,6 37 20 74 40 NW 1015,2 20 0,0
25.05.2019 16:00:00 20,1 11,6 37 20 74 40 WNW 1015,6 - 0,0
25.05.2019 15:00:00 19,2 11,7 34 18 70 38 NW 1016,1 - 0,0
25.05.2019 14:00:00 18,8 11,8 34 19 76 41 NW 1016,3 - 0,0
25.05.2019 13:00:00 18,7 12,0 37 20 67 36 NW 1016,4 - 0,0
25.05.2019 12:00:00 18,1 11,4 38 20 66 36 NW 1016,2 - 0,0
25.05.2019 11:00:00 17,2 11,9 34 19 57 31 WNW 1015,9 20 0,0
25.05.2019 10:00:00 16,2 11,8 36 20 58 31 WNW 1015,7 - 0,0
25.05.2019 09:00:00 15,9 12,1 28 15 62 34 WNW 1015,4 - 1,0
25.05.2019 08:00:00 16,0 11,8 28 15 67 36 NW 1015,3 20 0,0
25.05.2019 07:00:00 16,3 11,2 32 18 61 33 NW 1014,4 - 0,0
25.05.2019 06:00:00 16,4 10,9 27 15 55 30 NW 1014,4 - 0,0
25.05.2019 05:00:00 16,4 11,1 31 17 57 31 WNW 1013,7 20 0,0
25.05.2019 04:00:00 16,6 11,1 29 16 53 28 WNW 1014,1 - 0,0
25.05.2019 03:00:00 16,7 11,2 28 15 54 29 WNW 1014,1 - 0,0
25.05.2019 02:00:00 16,8 11,5 28 15 61 33 NW 1014,2 - 0,0
25.05.2019 01:00:00 16,9 11,4 32 17 60 33 WNW 1014,5 - 0,0
25.05.2019 00:00:00 16,9 11,2 32 18 63 34 NW 1014,5 - 0,0
24.05.2019 23:00:00 17,0 10,6 28 15 55 30 NW 1014,4 - 0,0
24.05.2019 22:00:00 17,0 11,0 23 13 53 29 NW 1014,4 - 0,0
24.05.2019 21:00:00 17,2 11,2 28 15 56 30 WNW 1014,1 - 0,0
24.05.2019 20:00:00 17,3 11,3 31 17 55 30 WNW 1013,9 25 0,0
24.05.2019 19:00:00 17,3 11,3 31 17 54 29 WNW 1013,6 - 0,0
24.05.2019 18:00:00 17,7 11,7 28 15 49 26 WNW 1013,8 - 0,0
24.05.2019 17:00:00 17,7 11,7 28 15 51 27 WNW 1014,3 25 0,0
24.05.2019 16:00:00 18,6 11,7 28 15 51 27 WNW 1014,5 - 0,0
24.05.2019 15:00:00 18,8 12,1 27 14 49 26 WNW 1014,6 - 0,0
24.05.2019 14:00:00 18,7 12,0 24 13 58 31 WNW 1014,9 - 0,0
24.05.2019 13:00:00 19,0 12,7 24 13 58 31 WNW 1015,3 - 0,0
24.05.2019 12:00:00 17,6 11,8 29 16 51 28 NW 1015,3 - 0,0
24.05.2019 11:00:00 17,7 12,2 24 13 58 31 NW 1015,0 25 0,0
24.05.2019 10:00:00 16,5 12,6 27 14 59 32 NW 1014,6 - 0,2
24.05.2019 09:00:00 16,8 12,1 30 16 52 28 WNW 1014,3 - 0,0
24.05.2019 08:00:00 16,8 11,9 29 15 50 27 NW 1014,3 - 0,0
24.05.2019 07:00:00 17,0 11,5 26 14 51 28 WNW 1014,0 - 0,0
24.05.2019 06:00:00 17,3 12,4 25 14 49 26 WNW 1014,2 - 0,4
24.05.2019 05:00:00 17,8 13,1 23 12 41 22 WNW 1014,3 16 0,0
24.05.2019 04:00:00 19,3 12,3 23 12 53 29 WNW 1014,4 20 0,0
24.05.2019 03:00:00 19,9 12,2 26 14 51 27 NW 1014,2 - 0,0
24.05.2019 02:00:00 20,9 10,7 19 10 35 19 NW 1014,7 - 0,0
24.05.2019 01:00:00 18,0 10,6 11 6 13 7 WNW 1015,1 - 0,0
24.05.2019 00:00:00 16,8 11,5 11 6 24 13 N 1015,0 - 0,0
23.05.2019 23:00:00 18,2 12,0 15 8 23 12 NNW 1015,0 - 0,0
23.05.2019 22:00:00 18,3 10,4 12 6 18 10 W 1014,7 - 0,0
23.05.2019 21:00:00 17,4 11,4 9 5 15 8 S 1014,4 - 0,0
23.05.2019 20:00:00 17,9 10,8 16 8 27 15 S 1014,3 25 0,0
23.05.2019 19:00:00 18,5 9,0 19 10 29 16 S 1014,5 - 0,0
23.05.2019 18:00:00 18,4 10,7 22 12 32 18 S 1014,9 - 0,0
23.05.2019 17:00:00 18,3 11,1 28 15 33 18 S 1015,0 22 0,0
23.05.2019 16:00:00 19,2 11,0 25 14 31 17 S 1015,5 - 0,0
23.05.2019 15:00:00 19,6 11,4 24 13 28 15 S 1016,0 - 0,0
23.05.2019 14:00:00 19,9 11,4 24 13 27 15 S 1016,3 - 0,0
23.05.2019 13:00:00 19,6 11,6 23 13 28 15 S 1016,9 - 0,0
23.05.2019 12:00:00 20,0 8,3 27 14 30 16 S 1017,2 - 0,0
23.05.2019 11:00:00 20,2 8,8 23 12 26 14 S 1017,2 - 0,0
23.05.2019 10:00:00 21,4 9,3 15 8 23 13 SSW 1017,4 - 0,0
23.05.2019 09:00:00 20,7 9,6 13 7 20 11 SW 1017,1 - 0,0
23.05.2019 08:00:00 18,1 11,6 12 7 17 9 SW 1016,8 20 0,0
23.05.2019 07:00:00 17,6 10,0 15 8 18 10 SW 1016,5 - 0,0
23.05.2019 06:00:00 17,6 9,2 14 7 18 10 SW 1016,3 - 0,0
23.05.2019 05:00:00 16,6 10,9 15 8 18 10 SW 1016,6 20 0,0
23.05.2019 04:00:00 18,9 8,5 4 2 15 8 NE 1016,5 - 0,0
23.05.2019 03:00:00 17,9 9,3 13 7 16 8 NNW 1016,7 - 0,0
23.05.2019 02:00:00 18,3 9,9 12 6 27 15 NNW 1016,8 - 0,0
23.05.2019 01:00:00 19,5 9,4 14 8 25 13 NW 1016,5 - 0,0
23.05.2019 00:00:00 20,4 8,7 17 9 26 14 WNW 1016,3 - 0,0
22.05.2019 23:00:00 20,3 8,3 18 10 24 13 WNW 1016,4 - 0,0
22.05.2019 22:00:00 20,8 8,1 16 8 21 12 W 1016,0 - 0,0
22.05.2019 21:00:00 22,9 7,8 14 7 22 12 WNW 1015,5 - 0,0
22.05.2019 20:00:00 21,9 9,8 10 5 35 19 SSW 1015,2 24 0,0
22.05.2019 19:00:00 21,0 9,3 25 13 43 23 S 1015,0 - 0,0
22.05.2019 18:00:00 19,4 11,4 29 15 36 20 S 1015,3 - 0,0
22.05.2019 17:00:00 22,4 10,5 10 5 36 19 S 1015,7 - 0,0
22.05.2019 16:00:00 26,9 7,4 14 8 32 17 NW 1015,6 - 0,0
22.05.2019 15:00:00 26,0 7,1 19 10 36 19 NNW 1016,0 - 0,0
22.05.2019 14:00:00 25,2 8,2 15 8 31 17 NNW 1016,4 24 0,0
22.05.2019 13:00:00 24,5 8,8 15 8 41 22 NNW 1016,8 - 0,0
22.05.2019 12:00:00 23,4 9,4 20 11 45 25 NW 1017,1 - 0,0
22.05.2019 11:00:00 21,8 9,7 23 12 46 25 NW 1017,2 30 0,0
22.05.2019 10:00:00 20,8 9,4 26 14 50 27 NW 1017,3 - 0,0
22.05.2019 09:00:00 19,7 9,3 23 12 47 25 NW 1017,0 - 0,0
22.05.2019 08:00:00 18,2 8,7 27 15 50 27 NW 1016,7 - 0,0
22.05.2019 07:00:00 17,1 8,8 24 13 41 22 WNW 1016,6 - 0,0
22.05.2019 06:00:00 16,8 9,2 26 14 50 27 WNW 1016,5 - 0,0
22.05.2019 05:00:00 17,0 8,9 27 15 46 25 WNW 1016,2 20 0,0
22.05.2019 04:00:00 16,9 9,1 23 12 47 25 NW 1016,3 - 0,0
22.05.2019 03:00:00 17,6 9,2 22 12 46 25 NW 1016,4 - 0,0
22.05.2019 02:00:00 18,0 9,3 27 15 53 28 NW 1016,2 - 0,0
22.05.2019 01:00:00 18,2 9,0 22 12 53 29 NW 1016,5 - 0,0
22.05.2019 00:00:00 18,2 9,3 28 15 48 26 NW 1016,4 - 0,0
21.05.2019 23:00:00 18,7 8,9 22 12 49 26 NW 1016,4 - 0,0
21.05.2019 22:00:00 18,9 9,1 20 11 41 22 NW 1015,8 - 0,0
21.05.2019 21:00:00 20,1 9,0 18 10 51 28 NW 1015,1 - 0,0
21.05.2019 20:00:00 21,9 8,0 22 12 44 24 NW 1014,4 - 0,0
21.05.2019 19:00:00 22,7 7,6 24 13 49 26 NW 1014,0 - 0,0
21.05.2019 18:00:00 23,4 8,3 25 13 52 28 NW 1013,9 - 0,0
21.05.2019 17:00:00 23,5 8,4 26 14 55 30 NW 1014,1 - 0,0
21.05.2019 16:00:00 22,7 8,0 25 14 50 27 NW 1014,5 - 0,0
21.05.2019 15:00:00 22,5 8,9 24 13 53 29 NW 1015,0 - 0,0
21.05.2019 14:00:00 22,2 9,4 25 13 50 27 NW 1015,1 - 0,0
21.05.2019 13:00:00 21,2 9,1 31 17 59 32 NW 1015,1 - 0,0
21.05.2019 12:00:00 20,7 9,0 27 15 59 32 NW 1015,0 - 0,0
21.05.2019 11:00:00 19,4 9,0 31 17 62 33 NW 1015,1 25 0,0
21.05.2019 10:00:00 18,1 8,9 29 16 53 29 NW 1015,2 - 0,0
21.05.2019 09:00:00 17,1 9,3 25 14 44 24 NW 1015,2 - 0,0
21.05.2019 08:00:00 15,6 9,0 18 10 40 21 WNW 1015,1 - 0,0
21.05.2019 07:00:00 14,5 8,7 9 5 42 23 NW 1014,5 - 0,0
21.05.2019 06:00:00 14,5 8,2 18 10 43 23 NW 1014,1 - 0,0
21.05.2019 05:00:00 14,4 8,3 16 9 38 20 NW 1013,9 25 0,0

tt = Température de l'air
td = dewpoint
ff = Vitesse du vent
fx = gusts
dd = Direction du vent
ppp = reduced air pressure
vv = visibility
rr = Quantités de précipitations

stations d'obs. à proximité